Time,TemperatureF,DewpointF,PressureIn,WindDirection,WindDirectionDegrees,WindSpeedMPH,WindSpeedGustMPH,Humidity,HourlyPrecipIn,Conditions,Clouds,dailyrainin,SoftwareType,DateUTC
2013-01-13 00:03:00,30.0,25.0,29.98,NNW,330,13.0,-999.0,80,-99.99,,,-99.99,,2013-01-13 00:03:00,
2013-01-13 00:12:00,30.0,25.0,29.98,NNW,330,13.0,-999.0,80,-99.99,,,-99.99,,2013-01-13 00:12:00,
2013-01-13 00:22:00,28.0,25.0,29.98,NW,320,15.0,-999.0,86,-99.99,,,-99.99,,2013-01-13 00:22:00,
2013-01-13 00:33:00,28.0,27.0,29.98,NW,320,14.0,18.0,92,-99.99,,,-99.99,,2013-01-13 00:33:00,
2013-01-13 00:43:00,28.0,27.0,29.98,NNW,330,14.0,20.0,92,-99.99,,,-99.99,,2013-01-13 00:43:00,
2013-01-13 00:53:00,28.0,27.0,29.96,NNW,340,15.0,21.0,92,-99.99,,,-99.99,,2013-01-13 00:53:00,
2013-01-13 01:02:00,28.0,27.0,29.96,NNW,340,15.0,21.0,92,-99.99,,,-99.99,,2013-01-13 01:02:00,
2013-01-13 01:12:00,28.0,27.0,29.96,NNW,340,15.0,21.0,92,-99.99,,,-99.99,,2013-01-13 01:12:00,
2013-01-13 01:22:00,28.0,27.0,29.95,North,350,12.0,16.0,92,-99.99,,,-99.99,,2013-01-13 01:22:00,
2013-01-13 01:32:00,28.0,27.0,29.95,NNW,340,12.0,17.0,92,-99.99,,,-99.99,,2013-01-13 01:32:00,
2013-01-13 01:43:00,28.0,27.0,29.95,North,350,12.0,18.0,92,-99.99,,,-99.99,,2013-01-13 01:43:00,
2013-01-13 01:53:00,28.0,27.0,29.94,North,350,13.0,-999.0,92,-99.99,,,-99.99,,2013-01-13 01:53:00,
2013-01-13 02:02:00,28.0,27.0,29.94,North,350,13.0,-999.0,92,-99.99,,,-99.99,,2013-01-13 02:02:00,
2013-01-13 02:12:00,28.0,27.0,29.94,North,350,13.0,-999.0,92,-99.99,,,-99.99,,2013-01-13 02:12:00,
2013-01-13 02:22:00,28.0,27.0,29.94,North,350,13.0,-999.0,92,-99.99,,,-99.99,,2013-01-13 02:22:00,
2013-01-13 16:33:00,18.0,14.0,30.16,NW,310,10.0,-999.0,85,-99.99,,,-99.99,,2013-01-13 16:33:00,
2013-01-13 16:43:00,18.0,14.0,30.19,WNW,290,8.0,-999.0,85,-99.99,,,-99.99,,2013-01-13 16:43:00,
2013-01-13 16:53:00,18.0,14.0,30.17,WNW,300,10.0,-999.0,85,-99.99,,,-99.99,,2013-01-13 16:53:00,
2013-01-13 17:03:00,18.0,14.0,30.17,WNW,300,10.0,-999.0,85,-99.99,,,-99.99,,2013-01-13 17:03:00,
2013-01-13 17:12:00,18.0,14.0,30.17,WNW,300,10.0,-999.0,85,-99.99,,,-99.99,,2013-01-13 17:12:00,
2013-01-13 17:22:00,18.0,14.0,30.20,NW,310,10.0,-999.0,85,-99.99,,,-99.99,,2013-01-13 17:22:00,
2013-01-13 17:33:00,18.0,14.0,30.18,NW,320,9.0,-999.0,85,-99.99,,,-99.99,,2013-01-13 17:33:00,
2013-01-13 17:43:00,18.0,12.0,30.17,NW,320,10.0,-999.0,78,-99.99,,,-99.99,,2013-01-13 17:43:00,
2013-01-13 17:53:00,18.0,12.0,30.18,WNW,300,14.0,-999.0,78,-99.99,,,-99.99,,2013-01-13 17:53:00,
2013-01-13 18:03:00,18.0,12.0,30.18,WNW,300,14.0,-999.0,78,-99.99,,,-99.99,,2013-01-13 18:03:00,
2013-01-13 18:12:00,18.0,12.0,30.18,WNW,300,14.0,-999.0,78,-99.99,,,-99.99,,2013-01-13 18:12:00,
2013-01-13 18:22:00,16.0,10.0,30.15,WNW,300,10.0,-999.0,78,-99.99,,,-99.99,,2013-01-13 18:22:00,
2013-01-13 18:33:00,18.0,12.0,30.16,WNW,300,12.0,-999.0,78,-99.99,,,-99.99,,2013-01-13 18:33:00,
2013-01-13 18:43:00,18.0,12.0,30.15,WNW,300,10.0,-999.0,78,-99.99,,,-99.99,,2013-01-13 18:43:00,
2013-01-13 18:53:00,18.0,12.0,30.15,WNW,300,12.0,17.0,78,-99.99,,,-99.99,,2013-01-13 18:53:00,
2013-01-13 19:02:00,18.0,12.0,30.15,WNW,300,12.0,17.0,78,-99.99,,,-99.99,,2013-01-13 19:02:00,
2013-01-13 19:12:00,18.0,12.0,30.15,WNW,300,12.0,17.0,78,-99.99,,,-99.99,,2013-01-13 19:12:00,
2013-01-13 19:22:00,18.0,12.0,30.14,West,280,10.0,-999.0,78,-99.99,,,-99.99,,2013-01-13 19:22:00,
2013-01-13 19:33:00,19.0,14.0,30.14,WNW,300,9.0,-999.0,79,-99.99,,,-99.99,,2013-01-13 19:33:00,
2013-01-13 19:43:00,19.0,14.0,30.15,WNW,300,12.0,-999.0,79,-99.99,,,-99.99,,2013-01-13 19:43:00,
2013-01-13 19:53:00,19.0,14.0,30.15,West,280,10.0,-999.0,79,-99.99,,,-99.99,,2013-01-13 19:53:00,
2013-01-13 20:03:00,19.0,14.0,30.15,West,280,10.0,-999.0,79,-99.99,,,-99.99,,2013-01-13 20:03:00,
2013-01-13 20:12:00,19.0,14.0,30.15,West,280,10.0,-999.0,79,-99.99,,,-99.99,,2013-01-13 20:12:00,
2013-01-13 20:22:00,19.0,14.0,30.17,West,280,10.0,-999.0,79,-99.99,,,-99.99,,2013-01-13 20:22:00,
2013-01-13 20:33:00,19.0,14.0,30.17,WNW,300,12.0,-999.0,79,-99.99,,,-99.99,,2013-01-13 20:33:00,
2013-01-13 20:43:00,19.0,14.0,30.17,WNW,290,10.0,-999.0,79,-99.99,,,-99.99,,2013-01-13 20:43:00,
2013-01-13 20:53:00,19.0,14.0,30.18,WNW,290,12.0,-999.0,79,-99.99,,,-99.99,,2013-01-13 20:53:00,
2013-01-13 21:03:00,19.0,14.0,30.18,WNW,290,12.0,-999.0,79,-99.99,,,-99.99,,2013-01-13 21:03:00,
2013-01-13 21:12:00,19.0,14.0,30.18,WNW,290,12.0,-999.0,79,-99.99,,,-99.99,,2013-01-13 21:12:00,
2013-01-13 21:23:00,19.0,12.0,30.21,West,280,14.0,-999.0,73,-99.99,,,-99.99,,2013-01-13 21:23:00,
2013-01-13 21:33:00,19.0,12.0,30.21,West,280,12.0,16.0,73,-99.99,,,-99.99,,2013-01-13 21:33:00,
2013-01-13 21:43:00,19.0,12.0,30.21,West,270,14.0,-999.0,73,-99.99,,,-99.99,,2013-01-13 21:43:00,
2013-01-13 21:53:00,19.0,12.0,30.22,West,280,12.0,-999.0,73,-99.99,,,-99.99,,2013-01-13 21:53:00,
2013-01-13 22:02:00,19.0,12.0,30.22,West,280,12.0,-999.0,73,-99.99,,,-99.99,,2013-01-13 22:02:00,
2013-01-13 22:12:00,19.0,12.0,30.22,West,280,12.0,-999.0,73,-99.99,,,-99.99,,2013-01-13 22:12:00,
2013-01-13 22:22:00,19.0,12.0,30.23,WNW,290,12.0,-999.0,73,-99.99,,,-99.99,,2013-01-13 22:22:00,
2013-01-13 22:33:00,19.0,12.0,30.24,West,280,12.0,-999.0,73,-99.99,,,-99.99,,2013-01-13 22:33:00,
2013-01-13 22:43:00,19.0,12.0,30.24,WNW,290,13.0,-999.0,73,-99.99,,,-99.99,,2013-01-13 22:43:00,
2013-01-13 22:52:00,19.0,12.0,30.24,West,280,12.0,-999.0,73,-99.99,,,-99.99,,2013-01-13 22:52:00,
2013-01-13 23:02:00,19.0,12.0,30.24,West,280,12.0,-999.0,73,-99.99,,,-99.99,,2013-01-13 23:02:00,
2013-01-13 23:12:00,19.0,12.0,30.24,West,280,12.0,-999.0,73,-99.99,,,-99.99,,2013-01-13 23:12:00,
2013-01-13 23:22:00,19.0,12.0,30.24,WNW,290,8.0,-999.0,73,-99.99,,,-99.99,,2013-01-13 23:22:00,
2013-01-13 23:33:00,18.0,12.0,30.25,WNW,290,10.0,-999.0,78,-99.99,,,-99.99,,2013-01-13 23:33:00,
2013-01-13 23:43:00,18.0,12.0,30.25,WNW,290,9.0,-999.0,78,-99.99,,,-99.99,,2013-01-13 23:43:00,
2013-01-13 23:53:00,18.0,12.0,30.25,WNW,290,7.0,-999.0,78,-99.99,,,-99.99,,2013-01-13 23:53:00,